• In Belarus
  • List of Countries
  • For 7 days
  • Water Temperature
  • Weather Map
  • Weather Widgets
  • user-avatar
    Login

    Hourly Weather Klagenfurt

    Today, 19 September, Thursday

    Time Temperature Precipitation Wind Pressure Humidity
    00:00 +10°C° 0 mm 1 mps 693 mmHg 85%
    01:00 +10°C° 0 mm 1 mps 693 mmHg 83%
    02:00 +10°C° 0 mm 1 mps 693 mmHg 82%
    03:00 +9°C° 0 mm 1 mps 693 mmHg 82%
    04:00 +9°C° 0 mm 1 mps 693 mmHg 82%
    05:00 +9°C° 0 mm 1 mps 693 mmHg 79%
    06:00 +9°C° 0 mm 1 mps 693 mmHg 77%
    07:00 +9°C° 0 mm 2 mps 694 mmHg 75%
    08:00 +10°C° 0 mm 2 mps 694 mmHg 68%
    09:00 +12°C° 0 mm 2 mps 694 mmHg 60%
    10:00 +14°C° 0 mm 2 mps 695 mmHg 53%
    11:00 +14°C° 0 mm 2 mps 695 mmHg 52%
    12:00 +15°C° 0 mm 2 mps 695 mmHg 51%
    13:00 +15°C° 0 mm 2 mps 694 mmHg 50%
    14:00 +15°C° 0 mm 2 mps 694 mmHg 52%
    15:00 +15°C° 0 mm 2 mps 694 mmHg 53%
    16:00 +14°C° 0 mm 2 mps 694 mmHg 55%
    17:00 +12°C° 0 mm 2 mps 694 mmHg 64%
    18:00 +10°C° 0 mm 1 mps 694 mmHg 74%
    19:00 +8°C° 0 mm 1 mps 694 mmHg 83%
    20:00 +8°C° 0 mm 1 mps 695 mmHg 84%
    21:00 +7°C° 0 mm 1 mps 695 mmHg 84%
    22:00 +7°C° 0 mm 1 mps 695 mmHg 85%
    23:00 +7°C° 0 mm 1 mps 695 mmHg 86%

    Tomorrow, 20 September, Friday

    Time Temperature Precipitation Wind Pressure Humidity
    00:00 +6°C° 0 mm 1 mps 695 mmHg 87%
    01:00 +6°C° 0 mm 1 mps 696 mmHg 88%
    02:00 +5°C° 0 mm 1 mps 695 mmHg 88%
    03:00 +4°C° 0 mm 0 mps 695 mmHg 88%
    04:00 +3°C° 0 mm 0 mps 695 mmHg 89%
    05:00 +4°C° 0 mm 0 mps 695 mmHg 86%
    06:00 +5°C° 0 mm 0 mps 695 mmHg 84%
    07:00 +5°C° 0 mm 0 mps 695 mmHg 81%
    08:00 +8°C° 0 mm 1 mps 696 mmHg 73%
    09:00 +10°C° 0 mm 1 mps 696 mmHg 65%
    10:00 +12°C° 0 mm 1 mps 696 mmHg 56%
    11:00 +13°C° 0 mm 2 mps 696 mmHg 53%
    12:00 +14°C° 0 mm 2 mps 696 mmHg 50%
    13:00 +15°C° 0 mm 2 mps 696 mmHg 48%
    14:00 +15°C° 0 mm 2 mps 695 mmHg 49%
    15:00 +15°C° 0 mm 1 mps 695 mmHg 51%
    16:00 +14°C° 0 mm 1 mps 695 mmHg 53%
    17:00 +12°C° 0 mm 1 mps 695 mmHg 61%
    18:00 +10°C° 0 mm 1 mps 694 mmHg 70%
    19:00 +7°C° 0 mm 1 mps 694 mmHg 79%
    20:00 +7°C° 0 mm 1 mps 694 mmHg 78%
    21:00 +7°C° 0 mm 1 mps 694 mmHg 78%
    22:00 +6°C° 0 mm 1 mps 694 mmHg 78%
    23:00 +6°C° 0 mm 1 mps 694 mmHg 78%

    Day after tomorrow, 21 September, Saturday

    Time Temperature Precipitation Wind Pressure Humidity
    00:00 +6°C° 0 mm 1 mps 694 mmHg 78%
    01:00 +4°C° 0 mm 0 mps 694 mmHg 78%
    02:00 +4°C° 0 mm 0 mps 694 mmHg 77%
    03:00 +4°C° 0 mm 0 mps 694 mmHg 77%
    04:00 +4°C° 0 mm 0 mps 693 mmHg 76%
    05:00 +5°C° 0 mm 0 mps 693 mmHg 74%
    06:00 +5°C° 0 mm 0 mps 693 mmHg 72%
    07:00 +6°C° 0 mm 0 mps 693 mmHg 70%
    08:00 +8°C° 0 mm 0 mps 694 mmHg 63%
    09:00 +12°C° 0 mm 1 mps 694 mmHg 55%
    10:00 +14°C° 0 mm 1 mps 695 mmHg 47%
    11:00 +15°C° 0 mm 1 mps 695 mmHg 45%
    12:00 +16°C° 0 mm 1 mps 695 mmHg 44%
    13:00 +18°C° 0 mm 1 mps 695 mmHg 42%
    14:00 +18°C° 0 mm 1 mps 694 mmHg 44%
    15:00 +18°C° 0 mm 1 mps 694 mmHg 47%
    16:00 +16°C° 0 mm 1 mps 693 mmHg 50%
    17:00 +14°C° 0 mm 1 mps 693 mmHg 58%
    18:00 +11°C° 0 mm 1 mps 692 mmHg 67%
    19:00 +9°C° 0 mm 1 mps 692 mmHg 76%
    20:00 +9°C° 0 mm 1 mps 692 mmHg 75%
    21:00 +8°C° 0 mm 1 mps 692 mmHg 75%
    22:00 +8°C° 0 mm 1 mps 692 mmHg 74%
    23:00 +8°C° 0 mm 1 mps 691 mmHg 74%

    22 September, Sunday

    Time Temperature Precipitation Wind Pressure Humidity
    00:00 +7°C° 0 mm 1 mps 691 mmHg 75%
    01:00 +7°C° 0 mm 1 mps 691 mmHg 75%
    02:00 +7°C° 0 mm 1 mps 691 mmHg 75%
    03:00 +7°C° 0 mm 1 mps 690 mmHg 75%
    04:00 +7°C° 0 mm 1 mps 690 mmHg 76%
    05:00 +8°C° 0 mm 1 mps 690 mmHg 76%
    06:00 +8°C° 0 mm 1 mps 690 mmHg 77%
    07:00 +8°C° 0 mm 0 mps 690 mmHg 77%
    08:00 +12°C° 0 mm 1 mps 690 mmHg 71%
    09:00 +14°C° 0 mm 1 mps 691 mmHg 65%
    10:00 +16°C° 0 mm 1 mps 691 mmHg 58%
    11:00 +18°C° 0 mm 1 mps 691 mmHg 61%
    12:00 +18°C° 0 mm 1 mps 690 mmHg 64%
    13:00 +18°C° 0 mm 1 mps 690 mmHg 67%
    14:00 +16°C° 0 mm 1 mps 690 mmHg 71%
    15:00 +16°C° 0 mm 1 mps 689 mmHg 74%
    16:00 +15°C° 0 mm 1 mps 689 mmHg 78%
    17:00 +14°C° 0.1 mm 1 mps 689 mmHg 84%
    18:00 +13°C° 0.1 mm 1 mps 688 mmHg 89%
    19:00 +12°C° 0.1 mm 1 mps 688 mmHg 94%
    20:00 +12°C° 0.2 mm 1 mps 688 mmHg 95%
    21:00 +12°C° 0.2 mm 1 mps 688 mmHg 96%
    22:00 +12°C° 0.2 mm 1 mps 688 mmHg 97%
    23:00 +13°C° 0.1 mm 1 mps 688 mmHg 97%

    23 September, Monday

    Time Temperature Precipitation Wind Pressure Humidity
    00:00 +13°C° 0.1 mm 1 mps 688 mmHg 97%
    01:00 +13°C° 0.1 mm 1 mps 688 mmHg 97%
    02:00 +13°C° 0 mm 1 mps 687 mmHg 97%
    03:00 +13°C° 0 mm 1 mps 687 mmHg 97%
    04:00 +13°C° 0 mm 1 mps 687 mmHg 97%
    05:00 +13°C° 0 mm 1 mps 687 mmHg 96%
    06:00 +14°C° 0 mm 1 mps 687 mmHg 96%
    07:00 +13°C° 0 mm 0 mps 687 mmHg 95%
    08:00 +14°C° 0 mm 0 mps 687 mmHg 90%
    09:00 +16°C° 0 mm 0 mps 687 mmHg 86%
    10:00 +17°C° 0 mm 0 mps 688 mmHg 82%
    11:00 +18°C° 0.7 mm 0 mps 687 mmHg 81%
    12:00 +18°C° 0.7 mm 0 mps 687 mmHg 80%
    13:00 +21°C° 0.7 mm 1 mps 687 mmHg 80%
    14:00 +17°C° 2.5 mm 0 mps 686 mmHg 85%
    15:00 +16°C° 2.5 mm 0 mps 686 mmHg 91%
    16:00 +15°C° 2.5 mm 0 mps 685 mmHg 96%
    17:00 +15°C° 4.4 mm 1 mps 686 mmHg 97%
    18:00 +15°C° 4.4 mm 1 mps 686 mmHg 97%
    19:00 +14°C° 4.4 mm 2 mps 686 mmHg 98%
    20:00 +14°C° 7.4 mm 2 mps 686 mmHg 98%
    21:00 +13°C° 7.4 mm 2 mps 686 mmHg 98%
    22:00 +12°C° 7.4 mm 2 mps 686 mmHg 98%
    23:00 +12°C° 2.2 mm 2 mps 687 mmHg 97%

    24 September, Tuesday

    Time Temperature Precipitation Wind Pressure Humidity
    00:00 +12°C° 2.2 mm 1 mps 687 mmHg 97%
    01:00 +12°C° 2.2 mm 1 mps 687 mmHg 97%
    02:00 +12°C° 0 mm 1 mps 687 mmHg 96%
    03:00 +11°C° 0 mm 1 mps 687 mmHg 95%
    04:00 +11°C° 0 mm 1 mps 687 mmHg 95%
    05:00 +11°C° 0 mm 1 mps 688 mmHg 94%
    06:00 +11°C° 0 mm 1 mps 688 mmHg 94%
    07:00 +11°C° 0 mm 1 mps 688 mmHg 93%
    08:00 +13°C° 0 mm 1 mps 689 mmHg 85%
    09:00 +15°C° 0 mm 1 mps 689 mmHg 77%
    10:00 +18°C° 0 mm 1 mps 690 mmHg 69%
    11:00 +19°C° 0 mm 1 mps 690 mmHg 64%
    12:00 +20°C° 0 mm 1 mps 690 mmHg 59%
    13:00 +21°C° 0 mm 1 mps 690 mmHg 54%
    14:00 +21°C° 0.1 mm 1 mps 690 mmHg 59%
    15:00 +20°C° 0.1 mm 1 mps 690 mmHg 64%
    16:00 +19°C° 0.1 mm 1 mps 689 mmHg 69%
    17:00 +18°C° 0.1 mm 1 mps 689 mmHg 76%
    18:00 +15°C° 0.1 mm 1 mps 689 mmHg 83%
    19:00 +13°C° 0.1 mm 1 mps 689 mmHg 90%
    20:00 +13°C° 0 mm 1 mps 689 mmHg 91%
    21:00 +12°C° 0 mm 0 mps 689 mmHg 92%
    22:00 +11°C° 0 mm 0 mps 689 mmHg 93%
    23:00 +11°C° 0 mm 0 mps 689 mmHg 93%
    Show more